Regional Weather Roundup
Issued by NWS

Home | Current Version | Previous Version | Text Only | Print | Product List | Glossary On
Versions: 1 2 3 4 5 6 7 8 9 10 11 12 13 14 15 16 17 18 19 20 21 22 23 24 25 26 27 28 29 30 31 32 33 34 35 36 37 38 39 40 41 42 43 44 45 46 47 48 49 50
000
ASUS45 KBOU 051607
RWRCO

WEATHER ROUNDUP FOR COLORADO
NATIONAL WEATHER SERVICE DENVER/BOULDER CO
1000 AM MDT THU MAY 05 2016

NOTE: "FAIR" INDICATES FEW OR NO CLOUDS BELOW 12000 FEET WITH NO
SIGNIFICANT WEATHER AND/OR OBSTRUCTIONS TO VISIBILITY.

COZ001>005-013-030-031-051700-
...NORTHWEST COLORADO...

CITY           SKY/WX    TMP DP  RH WIND       PRES   REMARKS
CRAIG          FAIR      64  34  32 E12       30.18F
HAYDEN         FAIR      59  30  33 SE10      30.20F
MEEKER         FAIR      65  33  30 VRB3      30.17F
MOUNT WERNER   NOT AVBL
STEAMBOAT SPGS FAIR      53  34  48 CALM      30.23F
WALDEN         FAIR      52  28  40 S5        30.31F
$$

COZ006>008-011-051700-
...WEST CENTRAL VALLEYS...

CITY           SKY/WX    TMP DP  RH WIND       PRES   REMARKS
GRAND JUNCTION FAIR      65  31  28 SE17      30.10F
MONTROSE       FAIR      69  28  21 E12       30.18F
EAGLE          SUNNY     55  27  33 CALM      30.28F
RIFLE          FAIR      61  32  33 CALM      30.17F
DELTA          NOT AVBL
NUCLA          NOT AVBL
$$

COZ017>023-064>068-051700-
...SOUTHWEST COLORADO...

CITY           SKY/WX    TMP DP  RH WIND       PRES   REMARKS
DURANGO        FAIR      62  31  31 E7        30.26S
CORTEZ         FAIR      71  28  20 SE16G24   30.18F
PAGOSA SPRINGS FAIR      62  19  18 CALM      30.32F
TELLURIDE      FAIR      60  21  22 NE3       30.36F
WOLF CREEK PAS FAIR      43  19  39 SW7       30.56S
$$

COZ009-010-012-014-032>034-037-058>063-051700-
...CENTRAL COLORADO...

CITY           SKY/WX    TMP DP  RH WIND       PRES   REMARKS
ASPEN          FAIR      63  27  25 NW3       30.27F
BUENA VISTA    FAIR      56  25  30 E5        30.33F
COPPER MTN     NOT AVBL
BERTHOUD PASS  FAIR      36  28  75 N12       30.53R
COTTONWOOD PAS FAIR      55  23  28 E6        30.42F
GUNNISON       FAIR      52  28  40 CALM      30.36F
KREMMLING      FAIR      50  28  43 CALM      30.31F
LEADVILLE      FAIR      51  20  29 SW6       30.39F
MONARCH PASS   FAIR      41  18  38 W10G20    30.63F
SALIDA         FAIR      56  30  37 CALM      30.39F
SUNLIGHT       FAIR      52  21  30 CALM      30.48S
WILKERSON PASS FAIR      46  18  31 NW6       30.52R
$$

COZ069>075-051700-
...SAN LUIS VALLEY/SANGRE DE CRISTO MOUNTAINS...

CITY           SKY/WX    TMP DP  RH WIND       PRES   REMARKS
ALAMOSA        FAIR      57  24  28 CALM      30.33S
LA VETA PASS   FAIR      54  23  30 SW5       30.45R
SAGUACHE       FAIR      57  28  33 SE9       30.35F
$$

COZ035-036-038>040-051700-
...NORTHERN COLORADO FRONT RANGE...

CITY           SKY/WX    TMP DP  RH WIND       PRES   REMARKS
DENVER INTL AP PTSUNNY   68  33  27 W5        30.15F
DMNS CITY PARK   N/A     73  31  21 N6        30.13F
AURORA         FAIR      69  33  27 NW3       30.16F
FRONT RANGE AP NOT AVBL
ERIE MUNI ARPT FAIR      65  38  36 CALM      30.14F
BOULDER MUN AP FAIR      64  37  36 CALM      30.14F
CENTENNIAL     PTSUNNY   70  29  21 W6        30.17F
BROOMFIELD     NOT AVBL
FORT COLLINS   FAIR      64  43  45 S6        30.13F
LONGMONT       FAIR      70  37  30 CALM      30.14F
$$

COZ041-046-047-076>085-087-088-051700-
...PIKES PEAK/PALMER DIVIDE AND SOUTHERN FOOTHILLS...

CITY           SKY/WX    TMP DP  RH WIND       PRES   REMARKS
COLO. SPRINGS  FAIR      74  25  16 N9        30.20S
A. F. ACADEMY  FAIR      72  21  15 NW10      30.21S
SCHRIEVER AFB  NOT AVBL
ELLICOTT       FAIR     N/A N/A N/A NE8       30.18F
FALCON         NOT AVBL
FORT CARSON    FAIR      71  35  27 VRB5      30.17F
LIMON          FAIR      66  42  41 CALM      30.17F
MONUMENT HILL  FAIR      66  27  22 NW9       30.25F
TRINIDAD       FAIR      66  31  27 SE5       30.20R
$$

COZ042>045-048>051-090-091-051700-
...NORTHEAST COLORADO...

CITY           SKY/WX    TMP DP  RH WIND       PRES   REMARKS
GREELEY ARPT   FAIR      64  39  39 SW3       30.13F
AKRON          FAIR      70  44  39 SW8       30.11F
BURLINGTON     FAIR      70  40  33 S15       30.13F
WRAY           NOT AVBL
STERLING       FAIR      68  48  49 S10       30.08F
HOLYOKE        NOT AVBL
FORT MORGAN    FAIR      64  41  42 SW6       30.12S
$$

COZ086-089-092>099-051700-
...SOUTHEAST COLORADO...

CITY           SKY/WX    TMP DP  RH WIND       PRES   REMARKS
PUEBLO         FAIR      68  39  34 SE3       30.13F
LA JUNTA       FAIR      65  44  46 VRB6      30.12F
LAMAR          FAIR      67  44  43 CALM      30.09S
SPRINGFIELD      N/A     71  41  33 NW5       30.11F
$$



USA.gov is the U.S. government's official web portal to all federal, state and local government web resources and services.